Wind_Speed
17 16 15 15 14 14 13 14 14 14 14 14 13 13 13 13 12 11 11 10 10 10 9 10 10 10 11 12 13 13 14 14 14 15 16 16 17 17 17 17 18 19 18
17 17 16 15 15 14 13 13 13 13 13 13 12 12 12 11 11 11 11 11 11 11 11 11 10 10 11 11 12 13 13 13 13 14 15 16 16 16 16 17 17 17 17
17 16 16 16 15 13 13 13 13 13 12 12 12 12 11 11 11 11 11 12 12 12 12 12 12 11 11 11 12 12 13 13 13 14 15 15 15 15 16 15 16 18 17
16 15 16 16 15 14 14 13 13 13 13 14 14 13 13 12 12 12 12 13 13 13 13 13 12 12 12 12 12 13 14 14 14 14 14 14 15 16 16 16 17 17 17
16 15 15 16 16 16 15 14 14 14 14 14 14 14 14 14 14 14 14 14 14 14 14 13 13 14 14 13 13 13 13 13 14 14 14 14 15 15 16 17 17 17 17
15 15 15 16 17 16 16 16 15 15 15 15 15 15 15 15 15 16 16 15 15 15 14 14 14 15 15 15 14 14 13 13 14 14 15 15 16 16 17 17 18 18 17
16 16 16 17 17 17 17 17 16 16 16 16 16 16 16 17 17 17 17 16 16 16 16 16 15 15 16 16 15 15 15 14 14 14 14 15 15 16 16 17 17 18 18
17 18 18 18 18 18 18 18 17 16 17 17 17 17 17 18 17 18 18 18 17 17 17 17 17 17 17 16 16 16 16 16 16 16 16 16 17 16 16 17 18 18 19
19 19 19 19 18 18 18 18 18 18 18 18 19 19 19 19 19 19 19 18 18 18 18 18 18 18 18 17 17 16 16 17 18 18 18 17 17 17 17 17 18 18 18
20 20 20 19 19 18 19 19 19 19 19 19 20 20 20 19 19 19 19 19 19 19 19 19 19 19 19 19 18 18 18 18 18 19 19 19 18 18 18 18 19 19 19
19 19 19 19 19 19 19 19 19 19 20 20 20 20 19 19 19 19 20 20 19 19 20 20 20 20 20 19 20 19 20 19 19 19 20 20 20 19 19 19 20 20 20
20 19 19 19 19 20 20 20 19 20 20 20 20 20 20 20 20 19 20 20 20 20 20 21 21 20 20 20 21 20 20 20 20 20 20 20 20 19 19 20 21 21 22
21 20 20 20 20 20 19 20 20 20 21 21 21 21 21 21 21 20 20 20 20 21 21 21 21 21 21 21 20 20 21 21 21 21 21 21 21 21 21 21 22 22 22
22 21 21 20 20 20 20 20 20 21 21 21 21 21 21 21 21 20 20 20 21 21 21 21 21 21 21 21 21 21 21 21 21 21 22 22 22 23 23 23 23 24 23
21 21 21 21 21 21 21 21 21 21 22 22 22 22 21 21 21 21 20 21 21 21 21 21 21 21 21 21 21 21 21 21 22 22 22 23 23 24 24 24 24 24 24
21 22 22 22 22 22 22 21 21 21 21 21 22 22 21 21 22 21 21 21 21 21 21 21 21 22 22 21 21 22 23 23 22 22 22 23 23 24 24 24 24 24 24
23 23 23 23 23 22 22 22 22 22 21 21 20 21 21 21 21 22 22 22 21 21 21 21 21 21 21 21 22 22 23 23 23 23 23 22 23 24 24 24 25 25 25
24 24 23 23 23 22 22 22 22 22 22 21 20 20 20 20 20 21 21 21 21 21 21 21 21 21 21 22 22 23 23 23 23 23 23 23 23 23 24 24 25 25 26
25 24 24 23 23 23 23 23 23 22 22 22 22 21 21 21 21 21 21 21 21 21 21 21 21 22 22 22 23 23 24 24 24 24 24 25 25 25 24 25 25 26 26
24 24 23 23 23 23 23 23 23 23 23 23 23 23 22 22 22 22 23 22 22 21 21 22 22 22 22 23 23 23 23 24 24 24 24 25 25 26 26 26 26 27 27
24 24 24 23 23 24 24 24 24 24 25 25 24 24 24 25 24 24 25 24 23 22 22 23 23 23 23 24 24 23 23 23 23 24 25 26 27 27 27 28 28 27 27
23 24 24 24 24 24 23 24 24 24 25 25 26 26 26 26 26 26 25 24 23 23 23 23 24 23 23 24 24 24 24 24 24 25 26 26 26 27 27 27 27 28 28
23 24 24 24 24 24 24 24 25 25 26 26 26 26 26 26 26 26 26 25 24 24 24 25 25 25 24 24 25 25 25 25 25 26 26 26 27 27 27 27 26 27 27
23 23 24 24 24 24 24 25 25 26 26 27 27 27 26 27 26 26 26 26 25 25 25 26 25 25 25 25 25 25 25 25 26 26 26 27 27 27 26 26 26 26 26
21 22 23 24 24 25 25 25 26 26 27 27 27 27 27 27 27 26 26 25 25 25 26 26 26 26 26 26 26 26 26 26 26 26 26 26 26 27 27 27 26 26 26
21 21 22 22 23 24 24 25 25 26 26 26 26 26 27 27 27 27 26 26 26 27 27 27 26 26 27 27 27 27 27 26 26 27 27 27 27 27 27 27 26 26 26
Wind_Direction
271 271 273 272 271 271 269 268 267 269 268 265 264 263 261 262 265 265 269 272 273 276 278 279 279 277 276 272 267 266 267 266 265 266 267 267 269 269 271 272 274 274 273
269 270 269 270 270 267 267 269 269 269 264 261 258 259 262 261 261 267 270 271 273 273 275 278 279 278 280 276 272 270 268 267 266 268 268 270 270 273 274 273 274 277 277
265 267 266 266 268 266 265 264 264 263 262 259 255 256 255 257 263 269 272 273 276 275 277 276 274 275 279 277 276 273 271 271 270 271 269 271 272 274 276 277 279 281 282
263 265 265 267 266 268 269 263 261 262 263 260 258 254 256 259 264 269 274 276 277 277 276 275 275 276 279 279 279 275 272 271 271 271 272 273 274 274 276 277 279 281 283
261 264 265 267 269 268 271 268 266 264 264 263 257 256 258 261 265 270 273 273 275 276 275 274 276 279 282 281 284 280 278 276 273 273 275 277 278 278 282 283 281 282 284
261 262 264 266 268 269 271 268 266 265 262 258 259 260 260 262 266 269 271 272 272 274 274 273 277 279 281 284 285 282 280 280 276 275 275 275 276 278 283 285 284 284 285
259 262 265 268 267 267 268 267 265 264 260 260 262 265 265 265 268 270 272 272 270 273 274 274 275 279 280 282 283 279 280 280 279 279 278 279 280 284 286 288 287 286 287
263 265 266 267 266 265 266 264 262 262 263 264 266 266 266 268 269 270 271 271 271 274 274 275 275 277 279 281 281 280 279 279 278 277 279 281 282 283 284 287 289 289 289
264 267 267 268 265 266 267 266 262 263 265 265 266 267 268 269 269 270 269 269 272 274 275 276 277 279 278 278 278 278 279 278 277 277 279 281 283 284 286 288 288 288 289
265 265 266 267 267 268 268 265 262 262 264 264 265 268 267 267 268 268 268 270 271 272 275 276 277 278 279 279 277 277 276 275 275 276 279 280 282 284 287 290 290 289 288
262 263 264 266 267 268 267 263 262 263 263 263 265 265 265 267 268 268 269 271 273 273 275 277 278 277 276 276 276 276 276 277 278 278 280 281 281 283 286 289 291 290 290
262 262 265 266 267 268 266 264 264 264 263 263 264 264 264 267 269 270 270 271 273 274 276 277 277 275 274 274 275 276 277 277 278 279 279 281 282 284 286 289 289 289 288
260 261 262 263 265 266 267 268 267 265 265 265 264 264 265 267 268 269 270 270 271 274 276 276 276 276 275 275 276 275 276 276 277 279 280 280 281 282 284 285 287 287 286
259 259 261 262 264 267 268 271 270 267 265 264 266 266 265 266 267 269 269 271 272 274 276 276 275 276 275 275 274 274 275 276 278 280 281 281 280 281 283 286 287 289 289
256 258 260 262 265 267 269 270 270 269 265 266 267 267 265 265 267 268 269 272 273 276 278 278 276 276 276 275 275 273 274 277 278 280 281 281 282 282 284 286 288 289 290
258 259 261 262 264 266 268 268 270 272 269 268 268 267 266 267 267 268 270 273 274 276 277 278 277 276 276 276 277 276 276 278 279 281 282 283 283 283 284 286 288 289 291
257 258 260 262 264 265 266 268 270 271 271 270 269 268 269 269 268 269 271 273 273 275 276 277 277 277 276 277 279 279 279 279 280 281 282 283 284 286 287 288 289 290 292
258 259 260 262 263 264 265 267 269 270 272 272 271 270 271 272 272 273 274 275 274 275 276 277 277 278 279 281 281 281 281 281 281 282 283 284 285 286 287 288 289 290 291
259 259 261 263 262 263 265 267 269 269 269 270 272 272 272 271 271 273 275 275 275 275 276 277 277 278 279 281 282 282 282 282 282 282 282 283 284 285 286 287 288 289 290
259 259 260 261 261 262 264 265 267 267 268 269 271 272 273 274 273 273 272 274 275 274 275 277 276 277 279 280 282 283 284 284 284 283 283 284 285 285 287 288 289 290 290
259 259 259 260 260 261 262 263 264 265 265 266 268 270 272 273 274 274 271 271 272 273 274 275 275 276 278 280 280 281 284 285 285 285 285 285 286 286 287 288 288 289 291
259 258 257 258 259 260 260 261 262 263 263 265 267 269 271 272 273 273 275 274 273 272 274 275 275 276 278 279 279 280 282 284 285 286 286 288 289 289 289 289 288 289 291
259 258 257 257 258 259 260 262 262 263 264 266 268 269 269 269 271 272 272 271 271 271 272 275 276 276 278 280 281 281 282 284 286 287 288 289 290 291 291 291 290 291 291
259 259 258 257 258 259 261 263 265 265 265 265 267 267 268 268 270 271 270 270 270 270 272 274 276 277 278 280 281 282 283 285 287 287 288 290 291 292 292 293 293 292 292
259 259 259 259 260 261 262 264 265 265 264 265 266 267 268 268 269 271 270 270 270 272 273 273 274 275 278 280 280 281 283 284 286 287 288 290 291 294 294 295 295 294 292
260 261 261 261 263 263 264 265 266 266 267 266 265 265 266 267 269 270 270 270 271 271 271 272 272 274 276 279 281 281 281 282 283 285 287 290 291 292 294 295 294 293 292
Height
5830 5830 5830 5829 5828 5828 5827 5827 5827 5826 5826 5826 5826 5826 5826 5825 5825 5825 5825 5824 5824 5823 5822 5822 5821 5820 5820 5819 5819 5819 5818 5817 5817 5817 5816 5816 5816 5816 5816 5815 5815 5815 5814
5826 5826 5825 5825 5824 5824 5824 5823 5823 5822 5822 5822 5823 5823 5822 5822 5822 5822 5822 5822 5821 5821 5820 5819 5818 5818 5817 5816 5816 5815 5815 5814 5813 5813 5813 5813 5812 5811 5811 5811 5811 5810 5810
5822 5822 5822 5821 5821 5820 5820 5819 5819 5819 5819 5819 5820 5820 5820 5820 5820 5820 5819 5819 5819 5818 5817 5817 5816 5815 5815 5814 5813 5812 5812 5811 5810 5810 5809 5809 5808 5808 5807 5807 5807 5806 5805
5818 5818 5818 5817 5817 5817 5817 5816 5816 5816 5816 5816 5817 5817 5817 5817 5817 5817 5816 5816 5816 5815 5814 5814 5813 5812 5812 5811 5810 5809 5809 5808 5807 5806 5806 5805 5804 5804 5803 5803 5803 5802 5801
5814 5814 5814 5813 5813 5813 5813 5813 5813 5812 5812 5813 5813 5813 5814 5814 5814 5814 5813 5813 5812 5812 5811 5811 5810 5809 5809 5808 5807 5806 5805 5805 5804 5803 5802 5802 5801 5800 5799 5799 5798 5798 5796
5809 5809 5809 5809 5809 5809 5809 5809 5809 5809 5809 5809 5809 5809 5810 5810 5810 5810 5810 5809 5809 5808 5808 5807 5807 5806 5805 5804 5803 5803 5802 5801 5801 5800 5799 5798 5798 5797 5796 5795 5794 5794 5792
5805 5805 5805 5805 5805 5805 5805 5804 5804 5805 5805 5805 5805 5805 5805 5805 5806 5805 5805 5805 5805 5804 5804 5803 5803 5802 5801 5801 5800 5799 5798 5798 5797 5796 5796 5795 5794 5793 5792 5791 5790 5789 5787
5800 5800 5800 5800 5800 5800 5800 5800 5800 5800 5801 5801 5801 5801 5801 5801 5801 5801 5801 5800 5800 5800 5800 5799 5799 5798 5797 5796 5795 5795 5794 5793 5793 5792 5792 5791 5790 5789 5788 5787 5785 5783 5782
5794 5795 5795 5795 5795 5795 5795 5795 5795 5796 5796 5796 5796 5796 5796 5796 5796 5796 5796 5795 5795 5795 5795 5794 5794 5793 5792 5792 5791 5790 5789 5789 5788 5788 5787 5786 5785 5784 5783 5782 5780 5779 5777
5788 5789 5789 5790 5790 5790 5790 5790 5790 5791 5791 5791 5791 5791 5791 5791 5791 5790 5790 5790 5790 5790 5790 5789 5788 5788 5787 5786 5786 5785 5784 5784 5783 5783 5782 5781 5780 5779 5778 5777 5775 5774 5772
5782 5783 5783 5783 5784 5784 5784 5784 5785 5785 5785 5785 5785 5786 5786 5786 5786 5785 5785 5785 5785 5784 5784 5783 5783 5782 5782 5781 5780 5780 5779 5778 5778 5777 5776 5775 5774 5773 5772 5771 5770 5768 5766
5776 5776 5777 5777 5778 5778 5778 5778 5779 5779 5779 5780 5780 5780 5780 5780 5780 5780 5780 5780 5779 5779 5779 5778 5777 5777 5776 5775 5775 5774 5773 5772 5772 5771 5770 5769 5768 5767 5766 5765 5764 5762 5760
5770 5770 5771 5771 5772 5772 5772 5772 5772 5773 5773 5774 5774 5774 5774 5774 5774 5774 5774 5774 5774 5773 5773 5772 5771 5771 5770 5769 5769 5768 5767 5766 5766 5765 5764 5763 5762 5761 5759 5758 5757 5755 5754
5763 5764 5765 5765 5766 5766 5766 5766 5766 5767 5767 5767 5767 5767 5768 5768 5768 5768 5768 5768 5767 5767 5766 5766 5765 5764 5764 5763 5762 5761 5761 5760 5759 5758 5757 5756 5755 5754 5752 5751 5750 5748 5747
5757 5758 5758 5759 5759 5760 5760 5760 5760 5760 5761 5761 5761 5761 5761 5762 5762 5762 5761 5761 5761 5761 5760 5759 5759 5758 5757 5757 5756 5755 5754 5754 5753 5752 5751 5749 5748 5747 5745 5744 5742 5741 5739
5751 5751 5752 5753 5753 5753 5754 5754 5754 5754 5755 5755 5755 5755 5755 5755 5755 5755 5755 5755 5754 5754 5753 5753 5752 5752 5751 5750 5749 5748 5748 5747 5746 5745 5743 5742 5741 5740 5738 5737 5735 5734 5732
5744 5745 5746 5746 5747 5747 5747 5748 5748 5749 5748 5748 5748 5748 5748 5749 5748 5748 5748 5748 5748 5747 5747 5746 5746 5745 5744 5744 5743 5742 5741 5740 5739 5738 5736 5735 5734 5732 5731 5730 5728 5727 5725
5737 5738 5739 5739 5740 5740 5741 5741 5742 5742 5742 5742 5742 5742 5742 5742 5742 5742 5741 5741 5741 5740 5740 5740 5739 5739 5738 5737 5736 5735 5734 5733 5732 5731 5729 5728 5727 5725 5724 5722 5721 5719 5717
5730 5731 5731 5732 5733 5733 5734 5734 5735 5735 5735 5736 5736 5736 5735 5735 5735 5735 5735 5734 5734 5734 5733 5733 5732 5732 5731 5730 5729 5728 5727 5726 5724 5723 5722 5721 5719 5717 5716 5714 5713 5711 5709
5722 5723 5724 5725 5725 5726 5727 5727 5728 5728 5728 5728 5729 5729 5729 5729 5728 5728 5728 5728 5727 5727 5726 5726 5725 5725 5724 5723 5722 5721 5720 5718 5717 5716 5714 5713 5711 5709 5708 5706 5704 5702 5701
5715 5716 5716 5717 5718 5718 5719 5720 5720 5720 5721 5721 5721 5721 5721 5722 5721 5721 5721 5720 5720 5719 5719 5718 5718 5717 5717 5716 5715 5714 5712 5711 5709 5708 5706 5705 5703 5701 5699 5697 5695 5693 5692
5707 5708 5709 5710 5710 5711 5711 5712 5712 5712 5713 5713 5714 5714 5714 5713 5713 5713 5713 5712 5712 5712 5712 5711 5711 5710 5709 5708 5707 5706 5705 5703 5702 5700 5698 5697 5695 5693 5691 5689 5687 5685 5683
5700 5700 5701 5702 5702 5703 5703 5704 5704 5704 5705 5705 5705 5705 5705 5705 5705 5705 5705 5705 5704 5704 5704 5704 5703 5702 5701 5700 5699 5698 5697 5695 5694 5692 5690 5689 5687 5685 5682 5680 5678 5676 5674
5692 5693 5693 5694 5694 5695 5695 5696 5696 5696 5696 5696 5697 5697 5697 5697 5697 5697 5697 5696 5696 5696 5696 5695 5695 5694 5693 5692 5691 5690 5689 5687 5685 5684 5683 5681 5679 5677 5674 5672 5670 5668 5666
5684 5685 5685 5686 5686 5687 5687 5687 5687 5687 5687 5688 5688 5688 5688 5688 5689 5689 5688 5688 5688 5688 5688 5687 5686 5686 5685 5684 5683 5682 5680 5679 5677 5676 5674 5673 5671 5669 5666 5664 5662 5659 5657
5677 5678 5678 5678 5678 5679 5679 5679 5679 5679 5679 5679 5679 5679 5680 5680 5680 5680 5680 5680 5680 5679 5679 5678 5678 5677 5676 5675 5674 5673 5672 5671 5669 5668 5666 5665 5663 5661 5658 5656 5653 5651 5649